Lamoni, IA

5:33 AM CDT on September 26, 2017 (GMT -0500)
Lamoni Municipal

Weather History for KLWD - October, 2013

Change the Weather History Date:

Saturday, October 5, 2013

  Actual Average Record
Temperature  
Mean Temperature 57 °F 57 °F  
Max Temperature 67 °F 68 °F 94 °F (1963)
Min Temperature 47 °F 46 °F 31 °F (1988)
Degree Days  
Heating Degree Days 8 9  
Month to date heating degree days 8 41  
Since 1 July heating degree days 56 141  
Cooling Degree Days 0 1  
Month to date cooling degree days 30 5  
Year to date cooling degree days 1093 938  
Growing Degree Days 7 (Base 50)    
Moisture  
Dew Point 40 °F    
Average Humidity 63    
Maximum Humidity 86    
Minimum Humidity 40    
Precipitation  
Precipitation 0.01 in 0.06 in 0.87 in (1968)
Month to date precipitation 0.45 0.32  
Sea Level Pressure  
Sea Level Pressure 29.89 in    
Wind  
Wind Speed 11 mph (WSW)    
Max Wind Speed 23 mph    
Max Gust Speed 31 mph    
Visibility 10 miles    
Events Rain , Thunderstorm    
T = Trace of Precipitation, MM = Missing Value Source: NWS Daily Summary

Daily Weather History Graph

Daily Weather History Graph

Search for Another Location

Airport or City:

Trip Planner

Search our weather history database for the weather conditions in past years. The results will help you decide how hot, cold, wet, or windy it might be!

Date:

Astronomy

Oct. 05, 2013 Rise Set
Actual Time 7:16 AM CDT 6:50 PM CDT
Civil Twilight 6:49 AM CDT 7:17 PM CDT
Nautical Twilight 6:17 AM CDT 7:49 PM CDT
Astronomical Twilight 5:45 AM CDT 8:21 PM CDT
Moon 7:56 AM CDT (10/5) 7:09 PM CDT (10/5)
Length of Visible Light 12h 28m
Length of Day
11h 34m
New Moon, 1% of the Moon is Illuminated
Oct 5
New Moon
Oct 11
First Quarter
Oct 18
Full
Oct 26
Last Quarter
Nov 3
New

Hourly Weather History & Observations

Time (CDT) Temp. Dew Point Humidity Pressure Visibility Wind Dir Wind Speed Gust Speed Precip Events Conditions
12:42 AM 68.0 °F 64.4 °F 88% 29.89 in 5.0 mi SW 15.0 mph 23.0 mph 0.03 in Rain , Thunderstorm Light Thunderstorms and Rain
12:53 AM 66.9 °F 64.0 °F 90% 29.87 in 9.0 mi SW 12.7 mph 19.6 mph 0.07 in Rain Light Rain
1:53 AM 62.1 °F 55.9 °F 80% 29.87 in 10.0 mi WNW 11.5 mph - 0.01 in   Overcast
2:53 AM 57.9 °F 53.1 °F 84% 29.84 in 10.0 mi WNW 6.9 mph - N/A   Partly Cloudy
3:53 AM 55.0 °F 46.0 °F 72% 29.88 in 10.0 mi WNW 12.7 mph 23.0 mph N/A   Partly Cloudy
4:53 AM 53.1 °F 44.1 °F 71% 29.87 in 10.0 mi WNW 10.4 mph - N/A   Clear
5:53 AM 51.1 °F 42.1 °F 71% 29.90 in 10.0 mi West 15.0 mph 18.4 mph 0.00 in   Mostly Cloudy
6:53 AM 48.9 °F 41.0 °F 74% 29.93 in 10.0 mi West 8.1 mph - 0.00 in   Clear
7:53 AM 46.9 °F 37.9 °F 71% 29.93 in 10.0 mi West 12.7 mph - N/A   Clear
8:53 AM 46.9 °F 35.1 °F 63% 29.96 in 10.0 mi West 10.4 mph - N/A   Overcast
9:53 AM 48.0 °F 35.1 °F 61% 29.96 in 10.0 mi West 8.1 mph - N/A   Overcast
10:53 AM 50.0 °F 35.1 °F 57% 29.96 in 10.0 mi West 10.4 mph - N/A   Overcast
11:53 AM 51.1 °F 36.0 °F 56% 29.94 in 10.0 mi SW 11.5 mph - N/A   Overcast
12:53 PM 57.0 °F 37.0 °F 47% 29.93 in 10.0 mi WSW 11.5 mph - N/A   Clear
1:53 PM 57.9 °F 37.9 °F 47% 29.90 in 10.0 mi WSW 15.0 mph 21.9 mph N/A   Clear
2:53 PM 59.0 °F 35.1 °F 41% 29.89 in 10.0 mi WSW 17.3 mph 25.3 mph N/A   Clear
3:53 PM 57.9 °F 35.1 °F 42% 29.86 in 10.0 mi SW 16.1 mph 24.2 mph N/A   Partly Cloudy
4:53 PM 55.0 °F 34.0 °F 45% 29.87 in 10.0 mi West 18.4 mph 24.2 mph N/A   Clear
5:53 PM 55.0 °F 34.0 °F 45% 29.86 in 10.0 mi SW 12.7 mph 20.7 mph N/A   Clear
6:53 PM 51.1 °F 36.0 °F 56% 29.87 in 10.0 mi SW 4.6 mph - N/A   Scattered Clouds
7:53 PM 52.0 °F 34.0 °F 50% 29.88 in 10.0 mi WSW 8.1 mph - N/A   Overcast
8:53 PM 51.1 °F 34.0 °F 52% 29.87 in 10.0 mi WSW 6.9 mph - N/A   Overcast
9:53 PM 51.1 °F 34.0 °F 52% 29.88 in 10.0 mi WSW 12.7 mph 18.4 mph N/A   Overcast
10:53 PM 46.9 °F 32.0 °F 56% 29.86 in 10.0 mi WSW 12.7 mph 20.7 mph N/A   Clear
11:53 PM 48.0 °F 33.1 °F 56% 29.84 in 10.0 mi SW 9.2 mph - N/A   Overcast